This demonstration page uses our WeatherBlox Daily Observations layout. Learn more.

Left ArrowRight Arrow

Hourly Observations for June 16, 2021

Temp ( °F °C ) Dew Point ( °F °C ) Humidity (%) Winds ( mph kmh ) Pressure ( in mb ) Visibility ( mi km ) Precip ( " mm )
12:53 am 00:53 Clear 73 22.8 39 3.9 29 29 NNW 7 11 30.00 1016 10 16 0.00 0.00
1:53 am 01:53 Clear 74 23.3 39 3.9 28 28 NNW 10 17 29.99 1016 10 16 0.00 0.00
2:53 am 02:53 Clear 74 23.3 39 3.9 28 28 NNW 12 19 29.98 1015 10 16 0.00 0.00
3:53 am 03:53 Clear 73 22.8 39 3.9 29 29 NNW 9 15 29.98 1015 10 16 0.00 0.00
4:53 am 04:53 Clear 72 22.2 38 3.3 29 29 NNW 9 15 29.98 1015 10 16 0.00 0.00
5:53 am 05:53 Sunny 72 22.2 38 3.3 29 29 NNW 9 15 29.98 1015 10 16 0.00 0.00
6:53 am 06:53 Sunny 73 22.8 38 3.3 28 28 NNW 8 13 29.98 1015 10 16 0.00 0.00
7:53 am 07:53 Sunny 77 25 37 2.8 24 24 N 10 17 29.99 1016 10 16 0.00 0.00
8:53 am 08:53 Sunny 79 26.1 36 2.2 21 21 N 13 20 29.99 1016 10 16 0.00 0.00
9:53 am 09:53 Sunny 82 27.8 36 2.2 19 19 NNW 12 19 29.99 1016 10 16 0.00 0.00
10:53 am 10:53 Sunny 86 30 35 1.7 16 16 N 13 20 29.97 1015 10 16 0.00 0.00
11:53 am 11:53 Sunny 90 32.2 32 0 13 13 N 12 19 29.95 1014 10 16 0.00 0.00
12:53 pm 12:53 Sunny 94 34.4 31 -0.6 11 11 N 7 11 29.93 1014 10 16 0.00 0.00
1:53 pm 13:53 Sunny 97 36.1 23 -5 7 7 VRB 6 9 29.91 1013 10 16 0.00 0.00
2:53 pm 14:53 Sunny 97 36.1 21 -6.1 6 6 VRB 3 6 29.89 1012 10 16 0.00 0.00
3:53 pm 15:53 Sunny 100 37.8 27 -2.8 7 7 VRB 5 7 29.87 1012 10 16 0.00 0.00
4:53 pm 16:53 Sunny 101 38.3 25 -3.9 7 7 Calm 29.85 1011 10 16 0.00 0.00
5:53 pm 17:53 Sunny 101 38.3 26 -3.3 7 7 S 6 9 29.83 1010 10 16 0.00 0.00
6:53 pm 18:53 Sunny 100 37.8 25 -3.9 7 7 VRB 3 6 29.82 1010 10 16 0.00 0.00
7:53 pm 19:53 Sunny 98 36.7 31 -0.6 9 9 S 6 9 29.82 1010 10 16 0.00 0.00
8:53 pm 20:53 Clear 90 32.2 33 0.6 13 13 WSW 3 6 29.82 1010 10 16 0.00 0.00
9:53 pm 21:53 Clear 91 32.8 32 0 12 12 NNW 6 9 29.83 1010 10 16 0.00 0.00
10:53 pm 22:53 Clear 80 26.7 38 3.3 22 22 N 7 11 29.83 1010 10 16 0.00 0.00
11:53 pm 23:53 Clear 82 27.8 39 3.9 22 22 N 6 9 29.84 1010 10 16 0.00 0.00

Powered by AerisWeather